When you browse on this site, cookies collect data to enhance your experience and personalize the content and advertising you see.
Visit our Privacy Policy to learn more. By continuing to use the site, you agree to this use of cookies and data.
  • In Latvia
  • List of Countries
  • For 7 days
  • Water Temperature
  • Weather Map
  • Weather Widgets
  • user-avatar
    Login

    Hourly Weather Baku

    Today, 23 August, Friday

    Time Temperature Precipitation Wind Pressure Humidity
    00:00 +32°C° 0 mm 1 mps 757 mmHg 33%
    01:00 +31°C° 0 mm 1 mps 757 mmHg 35%
    02:00 +31°C° 0 mm 1 mps 757 mmHg 36%
    03:00 +28°C° 0 mm 0 mps 757 mmHg 38%
    04:00 +28°C° 0 mm 0 mps 757 mmHg 37%
    05:00 +29°C° 0 mm 0 mps 757 mmHg 37%
    06:00 +29°C° 0 mm 0 mps 757 mmHg 37%
    07:00 +32°C° 0 mm 1 mps 758 mmHg 33%
    08:00 +34°C° 0 mm 1 mps 758 mmHg 30%
    09:00 +36°C° 0 mm 2 mps 758 mmHg 27%
    10:00 +37°C° 0 mm 2 mps 758 mmHg 25%
    11:00 +38°C° 0 mm 3 mps 758 mmHg 24%
    12:00 +40°C° 0 mm 4 mps 758 mmHg 22%
    13:00 +40°C° 0 mm 4 mps 757 mmHg 22%
    14:00 +40°C° 0 mm 5 mps 757 mmHg 22%
    15:00 +40°C° 0 mm 5 mps 757 mmHg 22%
    16:00 +38°C° 0 mm 4 mps 757 mmHg 24%
    17:00 +38°C° 0 mm 4 mps 757 mmHg 25%
    18:00 +37°C° 0 mm 3 mps 756 mmHg 27%
    19:00 +36°C° 0 mm 3 mps 757 mmHg 28%
    20:00 +35°C° 0 mm 3 mps 757 mmHg 30%
    21:00 +34°C° 0 mm 3 mps 757 mmHg 32%
    22:00 +34°C° 0 mm 2 mps 757 mmHg 34%
    23:00 +32°C° 0 mm 2 mps 757 mmHg 36%

    Tomorrow, 24 August, Saturday

    Time Temperature Precipitation Wind Pressure Humidity
    00:00 +32°C° 0 mm 1 mps 757 mmHg 38%
    01:00 +31°C° 0 mm 1 mps 757 mmHg 38%
    02:00 +31°C° 0 mm 1 mps 757 mmHg 38%
    03:00 +31°C° 0 mm 1 mps 757 mmHg 38%
    04:00 +31°C° 0 mm 2 mps 757 mmHg 37%
    05:00 +31°C° 0 mm 2 mps 757 mmHg 37%
    06:00 +31°C° 0 mm 3 mps 757 mmHg 37%
    07:00 +33°C° 0 mm 4 mps 757 mmHg 36%
    08:00 +35°C° 0 mm 5 mps 758 mmHg 36%
    09:00 +36°C° 0 mm 7 mps 758 mmHg 35%
    10:00 +36°C° 0 mm 6 mps 758 mmHg 34%
    11:00 +38°C° 0 mm 6 mps 758 mmHg 33%
    12:00 +37°C° 0 mm 5 mps 758 mmHg 32%
    13:00 +37°C° 0 mm 5 mps 757 mmHg 30%
    14:00 +38°C° 0 mm 4 mps 757 mmHg 27%
    15:00 +38°C° 0 mm 4 mps 757 mmHg 25%
    16:00 +37°C° 0 mm 4 mps 757 mmHg 26%
    17:00 +36°C° 0 mm 4 mps 757 mmHg 27%
    18:00 +36°C° 0 mm 4 mps 757 mmHg 28%
    19:00 +35°C° 0 mm 4 mps 757 mmHg 30%
    20:00 +34°C° 0 mm 4 mps 757 mmHg 33%
    21:00 +33°C° 0 mm 3 mps 758 mmHg 35%
    22:00 +33°C° 0 mm 3 mps 757 mmHg 35%
    23:00 +33°C° 0 mm 3 mps 757 mmHg 36%

    Day after tomorrow, 25 August, Sunday

    Time Temperature Precipitation Wind Pressure Humidity
    00:00 +31°C° 0 mm 3 mps 757 mmHg 37%
    01:00 +31°C° 0 mm 3 mps 757 mmHg 39%
    02:00 +30°C° 0 mm 3 mps 757 mmHg 40%
    03:00 +30°C° 0 mm 3 mps 757 mmHg 42%
    04:00 +30°C° 0 mm 4 mps 757 mmHg 43%
    05:00 +30°C° 0 mm 4 mps 757 mmHg 45%
    06:00 +30°C° 0 mm 4 mps 757 mmHg 47%
    07:00 +32°C° 0 mm 4 mps 758 mmHg 44%
    08:00 +33°C° 0 mm 4 mps 758 mmHg 42%
    09:00 +33°C° 0 mm 5 mps 758 mmHg 39%
    10:00 +34°C° 0 mm 5 mps 758 mmHg 38%
    11:00 +34°C° 0 mm 4 mps 758 mmHg 36%
    12:00 +35°C° 0 mm 4 mps 758 mmHg 35%
    13:00 +35°C° 0 mm 4 mps 758 mmHg 31%
    14:00 +35°C° 0 mm 4 mps 757 mmHg 28%
    15:00 +36°C° 0 mm 4 mps 757 mmHg 25%
    16:00 +35°C° 0 mm 4 mps 757 mmHg 25%
    17:00 +34°C° 0 mm 4 mps 757 mmHg 25%
    18:00 +34°C° 0 mm 3 mps 757 mmHg 26%
    19:00 +33°C° 0 mm 4 mps 757 mmHg 30%
    20:00 +32°C° 0 mm 4 mps 758 mmHg 34%
    21:00 +30°C° 0 mm 4 mps 758 mmHg 38%
    22:00 +30°C° 0 mm 4 mps 758 mmHg 41%
    23:00 +29°C° 0 mm 4 mps 758 mmHg 43%

    26 August, Monday

    Time Temperature Precipitation Wind Pressure Humidity
    00:00 +29°C° 0 mm 4 mps 758 mmHg 46%
    01:00 +29°C° 0 mm 4 mps 758 mmHg 47%
    02:00 +28°C° 0 mm 4 mps 758 mmHg 48%
    03:00 +28°C° 0 mm 4 mps 757 mmHg 48%
    04:00 +28°C° 0 mm 5 mps 758 mmHg 50%
    05:00 +28°C° 0 mm 5 mps 758 mmHg 51%
    06:00 +28°C° 0 mm 6 mps 758 mmHg 52%
    07:00 +29°C° 0 mm 6 mps 758 mmHg 48%
    08:00 +30°C° 0 mm 7 mps 758 mmHg 45%
    09:00 +32°C° 0 mm 7 mps 759 mmHg 42%
    10:00 +32°C° 0 mm 7 mps 759 mmHg 40%
    11:00 +33°C° 0 mm 7 mps 759 mmHg 37%
    12:00 +33°C° 0 mm 7 mps 759 mmHg 34%
    13:00 +33°C° 0 mm 8 mps 759 mmHg 36%
    14:00 +33°C° 0 mm 8 mps 758 mmHg 37%
    15:00 +32°C° 0 mm 9 mps 758 mmHg 38%
    16:00 +32°C° 0 mm 9 mps 758 mmHg 45%
    17:00 +31°C° 0 mm 9 mps 758 mmHg 52%
    18:00 +29°C° 0 mm 10 mps 758 mmHg 58%
    19:00 +29°C° 0 mm 10 mps 759 mmHg 59%
    20:00 +29°C° 0 mm 9 mps 759 mmHg 60%
    21:00 +28°C° 0 mm 9 mps 759 mmHg 61%
    22:00 +29°C° 0 mm 9 mps 760 mmHg 58%
    23:00 +29°C° 0 mm 9 mps 760 mmHg 56%

    27 August, Tuesday

    Time Temperature Precipitation Wind Pressure Humidity
    00:00 +29°C° 0 mm 9 mps 760 mmHg 54%
    01:00 +28°C° 0 mm 10 mps 760 mmHg 58%
    02:00 +28°C° 0 mm 11 mps 759 mmHg 63%
    03:00 +27°C° 0 mm 11 mps 759 mmHg 68%
    04:00 +27°C° 0 mm 11 mps 759 mmHg 68%
    05:00 +27°C° 0 mm 12 mps 760 mmHg 68%
    06:00 +27°C° 0 mm 12 mps 760 mmHg 68%
    07:00 +27°C° 0 mm 12 mps 760 mmHg 65%
    08:00 +28°C° 0 mm 11 mps 760 mmHg 62%
    09:00 +28°C° 0 mm 11 mps 760 mmHg 58%
    10:00 +29°C° 0 mm 11 mps 760 mmHg 56%
    11:00 +29°C° 0 mm 10 mps 759 mmHg 54%
    12:00 +29°C° 0 mm 10 mps 759 mmHg 52%
    13:00 +29°C° 0 mm 9 mps 759 mmHg 53%
    14:00 +29°C° 0 mm 9 mps 758 mmHg 53%
    15:00 +29°C° 0 mm 8 mps 758 mmHg 53%
    16:00 +29°C° 0 mm 8 mps 758 mmHg 56%
    17:00 +28°C° 0 mm 7 mps 758 mmHg 58%
    18:00 +27°C° 0 mm 7 mps 758 mmHg 61%
    19:00 +27°C° 0 mm 6 mps 758 mmHg 62%
    20:00 +27°C° 0 mm 6 mps 758 mmHg 63%
    21:00 +27°C° 0 mm 6 mps 758 mmHg 64%
    22:00 +27°C° 0.1 mm 6 mps 758 mmHg 64%
    23:00 +26°C° 0.1 mm 6 mps 757 mmHg 64%

    28 August, Wednesday

    Time Temperature Precipitation Wind Pressure Humidity
    00:00 +26°C° 0.1 mm 7 mps 757 mmHg 64%
    01:00 +26°C° 0 mm 7 mps 757 mmHg 65%
    02:00 +26°C° 0 mm 7 mps 757 mmHg 65%
    03:00 +26°C° 0 mm 7 mps 757 mmHg 66%
    04:00 +26°C° 0 mm 7 mps 757 mmHg 66%
    05:00 +26°C° 0 mm 7 mps 757 mmHg 67%
    06:00 +26°C° 0 mm 7 mps 757 mmHg 67%
    07:00 +27°C° 0 mm 7 mps 757 mmHg 64%
    08:00 +27°C° 0 mm 8 mps 757 mmHg 61%
    09:00 +28°C° 0 mm 8 mps 757 mmHg 58%
    10:00 +28°C° 0 mm 8 mps 757 mmHg 56%
    11:00 +29°C° 0 mm 8 mps 757 mmHg 54%
    12:00 +29°C° 0 mm 8 mps 757 mmHg 52%
    13:00 +29°C° 0 mm 8 mps 757 mmHg 53%
    14:00 +29°C° 0 mm 9 mps 757 mmHg 53%
    15:00 +29°C° 0 mm 9 mps 757 mmHg 53%
    16:00 +28°C° 0 mm 9 mps 757 mmHg 55%
    17:00 +28°C° 0 mm 9 mps 757 mmHg 57%
    18:00 +27°C° 0 mm 9 mps 757 mmHg 58%
    19:00 +27°C° 0 mm 8 mps 757 mmHg 57%
    20:00 +27°C° 0 mm 7 mps 758 mmHg 57%
    21:00 +27°C° 0 mm 6 mps 758 mmHg 56%
    22:00 +26°C° 0 mm 4 mps 758 mmHg 57%
    23:00 +26°C° 0 mm 3 mps 758 mmHg 57%
    Show more